SL-12 R/B(AUX MOTOR), 32281

Orbit data source: Space-Track

SL-12 R/B(AUX MOTOR), 32281 is space debris in HEO originally from a launch on Fri, 26 Oct 2007 UTC launched from the Tyuratam Missile And Space Complex (TTMTR). Debris objects in space refer to the collection of defunct objects orbiting the Earth. Examples of debris include non-operational satellites, rocket bodies, and fragments generated from explosions, collisions, or faulty payload assembly.

Loading next visibility...
Identifier
32281, 2007-052G
Orbit
HEO
Last TLE update
1 day ago
Origin
Manufacturer
RKKE
Mission
Spacecraft
Bus & Motor
SOZ, Unknown motor
Mass
56 kg wet, 56 kg dry
Launch date (UTC)
2007-10-26 (18 years ago)
Launch vehicle
Unknown
Launch site
Tyuratam Missile And Space Complex (TTMTR)
Object type
Payload
Rocket body
Debris
Shape & HBR
Cyl, 1.1 m
Radar Cross Section
0.660 m², Medium (>0.1 m² and < 1m²)

Expand to show TLE details & history

TLE from 1 day ago
0 SL-12 R/B(AUX MOTOR)
1 32281U 07052G   25185.92495864 -.00000078  00000-0  13823-3 0  9994
2 32281  65.3231  62.5940 5670165 219.6487  80.9089  4.23696313273206
Epoch: 2025-07-04T22:11Z
TLE epoch observation values (Epoch: 2025-07-04T22:11:56.426Z)
Latitude
-0.00002°
Longitude
166.45583°
Altitude
13,059.673 km
Speed
4.039 km/s
True Right ascension
04h 10m 26s
True Declination
0° 00' 00"
Sunlit
Object was in daylight at epoch
Visualization orbit readout
Latitude
40.63437°
Longitude
-170.81856°
Altitude
18,720.265 km
Speed
2.658 km/s
Apparent Right ascension
05h 24m 44s
Apparent Declination
27° 20' 01"
Sunlit
Object is in daylight
Visualization observer readout
Local Sidereal Time
16:19:16
Azimuth
344.446° N
Elevation
-21.046°
Doppler factor
1
Orbital elements
Apogee altitude
18,899.774 km
Perigee altitude
606.422 km
Semi-major axis
16,131.235 km
Eccentricity
0.56702
Inclination
65.3231°
RAAN
62.594°
Arg. of periapsis
219.6487°
True anomaly
Unknown
Mean anomaly
80.9089°
Eccentric anomaly
Unknown
Mean motion
1.05936 °/min
Orbital period
339.83 mins
BSTAR
0.00013823
Loading maneuver chart data...
Loading SW <> Apogee altitude chart data...
Loading historical data...
Loading historical data...
Loading historical data...
Loading historical data...
Loading historical data...
Loading historical data...
Loading historical data...

SL-12 R/B(AUX MOTOR) Visibility forecast

Observer location: undefined°, undefined°

Span
Click to sort rows by Start time (UTC) header in descending order
Start Az.
Max El. time (UTC)
Max El. Az.
Max El.
End time (UTC)
End Az.
15 mins2025-07-06 06:14:07.043Z320.336° NNW2025-07-06 06:22:07.043Z308.71° NW11.289°2025-07-06 06:29:07.043Z293.189° NW
227 mins2025-07-06 13:37:07.043Z138.962° SSE2025-07-06 15:47:07.043Z74.441° E40.899°2025-07-06 17:24:07.043Z32.272° NE
240 mins2025-07-06 19:32:07.043Z242.802° WSW2025-07-06 23:02:07.043Z2.286° NNE37.65°2025-07-06 23:32:07.043Z79.397° E
|